Location: Estrées-Saint-Denis
(49.4260°N, 2.6429°E)
Time: 02:00:30
(UTC+00:00)

Daily predictions for brighter satellites

Satellite Brightness Start Highest point End
(mag) Time Altitude Azimuth Time Altitude Azimuth Time Altitude Azimuth
BREEZE-M DEB (TANK) 4.4 00:01:08 10° W 00:05:17 74° SSW 00:21:02 10° ESE
Cosmos 1937 Rocket 4.5 00:04:13 23° SSE 00:06:37 35° ESE 00:11:21 10° NE
Cosmos 923 Rocket 4.4 00:01:59 10° NNW 00:07:14 62° ENE 00:11:00 19° SE
Cosmos 1674 Rocket 4.3 00:05:41 24° SW 00:07:51 44° WNW 00:12:02 10° N
SL-12 R/B(2) 4.3 00:02:26 19° SSW 00:08:47 80° SE 00:18:41 10° NE
Okean 2 Rocket 4.3 00:10:16 10° NNW 00:14:12 30° W 00:16:03 22° SW
Cosmos 1898 Rocket 3.8 00:13:33 29° S 00:16:02 55° ESE 00:21:05 10° NNE
ALOS 2 4.3 00:17:02 17° WSW 00:18:40 21° W 00:22:03 10° NW
GEOS 3 Rocket 4.1 00:15:09 10° NE 00:20:03 42° ESE 00:22:15 28° S
Cosmos 2074 Rocket 4.4 00:21:27 22° SW 00:25:25 54° WNW 00:31:33 10° N
In-Cosmos 22 Rocket 4.4 00:27:54 26° S 00:31:17 72° E 00:37:07 10° NNE
CZ-2D R/B 4.3 00:28:25 10° NE 00:31:22 15° E 00:34:17 10° ESE
Cosmos 1606 3.1 00:30:07 10° N 00:33:38 52° ENE 00:35:20 27° SE
Helios 1A Rocket 3.5 00:32:17 20° SE 00:34:37 47° ENE 00:38:17 10° N
Cosmos 1869 3.5 00:34:02 10° N 00:37:42 59° ENE 00:39:31 27° SSE
SL-16 R/B 2.8 00:35:13 10° NW 00:40:31 41° WSW 00:43:10 26° SSW
Cosmos 2341 Rocket 4.1 00:36:54 23° S 00:40:52 70° E 00:47:04 10° NNE
CZ-2C R/B 4.4 00:36:23 10° ESE 00:40:56 29° ENE 00:45:35 10° N
CENTAUR R/B 2.9 00:35:46 14° WSW 00:40:58 67° NW 00:48:18 10° NE
USA 234 4.3 00:34:58 10° ENE 00:41:10 47° N 00:47:21 10° WNW
Cosmos 2237 Rocket 4.2 00:41:51 10° WNW 00:44:01 12° W 00:46:00 10° WSW
Cosmos 1461 2.6 00:43:01 34° SSW 00:44:37 74° SE 00:48:30 10° NE
Cosmos 1603 4.3 00:40:08 10° NNW 00:45:49 56° NE 00:51:26 10° SE
Cosmos 1680 Rocket 3.4 00:42:47 10° NNW 00:48:01 85° WSW 00:51:38 20° SSE
Cosmos 2228 3.6 00:44:28 10° N 00:48:42 53° ENE 00:51:38 18° SSE
Cosmos 292 Rocket 4.1 00:48:11 23° SW 00:51:01 60° WNW 00:55:49 10° NNE
CRYOSAT 2 4.3 00:46:24 10° N 00:51:19 86° E 00:54:08 26° S
Cosmos 1943 3.2 00:45:48 10° NNW 00:51:27 88° ENE 00:56:23 14° SSE
Cosmos 2227 Rocket 3.4 00:46:33 10° WSW 00:51:45 36° NW 00:56:59 10° NNE
Cosmos 2082 3.7 00:48:25 23° SW 00:52:00 79° WNW 00:57:40 10° NNE
Cosmos 2112 Rocket 3.9 00:46:49 10° NNW 00:52:02 89° ENE 00:55:57 18° SSE
Aureole 1 Rocket 3.6 00:53:40 23° SW 00:55:51 49° WNW 01:00:35 10° NNE
Resurs 1-4 Rocket 3.7 00:54:39 10° NE 00:59:03 26° E 01:03:21 10° SSE
USA 238 DEB 4.2 00:59:38 21° S 01:03:21 43° ESE 01:09:35 10° NE
USA 238 4.2 00:59:40 21° S 01:03:23 42° ESE 01:09:38 10° NE
BREEZE-M DEB (TANK) 2.9 00:59:33 10° WNW 01:04:11 30° SW 01:04:15 30° SW
H-2A R/B 3.7 01:05:20 10° N 01:08:46 24° WNW 01:11:28 13° WSW
BlueWalker 3 2.8 01:05:35 10° WNW 01:09:15 51° N 01:12:55 10° E
Cosmos 1818 4.1 01:04:21 10° NW 01:09:29 41° WSW 01:12:28 22° S
Cosmos 2218 Rocket 4.0 01:07:06 21° S 01:11:23 89° ESE 01:17:36 10° N
Cosmos 2297 Rocket 4.5 01:08:10 10° W 01:12:08 19° NW 01:16:08 10° N
Cosmos 1544 Rocket 3.6 01:07:44 10° NNW 01:12:10 69° W 01:14:43 24° S
Cosmos 2366 rocket 4.0 01:08:29 22° S 01:12:49 86° W 01:19:05 10° N
Cosmos 372 Rocket 4.4 01:15:43 20° SW 01:19:16 56° WNW 01:24:25 10° NNE
Cosmos 2219 4.3 01:14:58 12° WSW 01:19:48 38° NW 01:25:03 10° NNE
CZ-4C R/B 4.5 01:19:57 10° WNW 01:24:21 25° NNW 01:29:41 10° NE
Cosmos 494 Rocket 4.1 01:19:21 10° NNW 01:24:37 81° ENE 01:29:52 10° SSE
Cosmos 921 Rocket 3.1 01:23:24 10° NNW 01:27:38 73° ENE 01:31:45 10° SSE
Cosmos 1975 Rocket 4.2 01:25:49 18° WSW 01:28:23 31° WNW 01:32:21 10° N
Cosmos 2227 4.2 01:26:28 21° SSW 01:30:30 85° ESE 01:36:18 10° NNE
IDEFIX/ARIANE 42P 2.8 01:28:29 10° NNE 01:33:43 64° ESE 01:37:48 16° S
Cosmos 1844 4.3 01:32:48 17° S 01:37:06 52° ESE 01:42:44 10° NE
Cosmos 2263 Rocket 3.2 01:33:26 12° WSW 01:38:16 38° NW 01:43:28 10° NNE
NOSS 3-2 (A) 4.2 01:33:30 10° WSW 01:38:46 46° NW 01:45:04 10° NE
MSX 4.1 01:33:15 10° NNE 01:38:56 62° ESE 01:43:47 14° S
SL-8 Rocket 4.5 01:37:14 18° SW 01:41:43 49° WNW 01:47:45 10° N
NOSS 3-2 (C) 3.5 01:42:25 15° SW 01:46:59 69° NW 01:53:27 10° NE
Cosmos 1606 Rocket 3.7 01:42:57 10° N 01:47:25 79° ENE 01:51:46 10° SSE
Cosmos 1937 Rocket 4.4 01:44:19 14° WSW 01:48:29 39° WNW 01:53:23 10° NNE
Meteor 2-13 Rocket 4.5 01:43:28 10° NNW 01:49:32 69° W 01:55:05 13° S
CZ-2C R/B 3.5 01:48:25 10° NNE 01:53:44 59° E 01:58:24 12° S
Genesis I 4.0 01:51:16 10° NNW 01:54:47 50° NE 01:58:20 10° ESE
Cosmos 1844 Rocket 2.7 01:51:37 17° SSW 01:56:01 80° ESE 02:01:37 10° NNE
Iridium 2 4.5 01:54:18 11° SSE 01:56:17 25° E 01:58:22 10° NNE
Cosmos 1536 Rocket 3.9 01:54:56 18° SSW 01:58:03 53° WNW 02:02:23 10° N
GEOS 3 Rocket 4.3 01:53:09 10° NE 01:58:08 48° NW 02:03:02 10° WSW
SL-16 R/B 3.1 01:52:22 10° SE 01:58:30 61° ENE 02:04:37 10° N
Cosmos 1867 3.6 01:55:11 16° SW 01:59:35 87° NW 02:05:07 10° NE
Cosmos 1726 Rocket 3.6 01:56:51 10° N 02:01:19 82° E 02:05:42 10° SSE
Cosmos 2239 Rocket 4.5 01:55:59 13° S 02:01:32 88° E 02:07:43 10° N
Cosmos 1727 Rocket 4.2 01:57:35 10° NNW 02:03:47 57° W 02:09:39 12° SSW
H-2A R/B 3.4 02:02:49 10° N 02:06:49 73° WNW 02:10:00 15° SSW
Cosmos 1238 Rocket 3.9 02:08:11 10° N 02:11:13 33° ENE 02:13:59 10° SE
CZ-2D R/B 2.1 02:06:46 10° NNE 02:12:09 89° WNW 02:17:02 12° SSW
USA 81 4.4 02:08:16 10° N 02:13:33 66° E 02:18:46 10° SSE
ALOS 3.3 02:09:52 10° NNE 02:14:14 40° E 02:18:34 10° SSE
ADEOS II 2.3 02:10:41 10° NNE 02:15:57 70° ESE 02:21:10 10° S
Cosmos 1437 Rocket 3.5 02:16:19 15° SW 02:19:09 38° WNW 02:22:40 10° N
CZ-2C R/B 2.9 02:15:48 10° S 02:20:56 50° W 02:26:14 10° NNW
USA 234 4.1 02:17:15 10° E 02:23:36 55° NNE 02:29:57 10° WNW
Alouette 2 Rocket 3.6 02:19:28 10° S 02:23:38 64° ESE 02:27:11 10° NNE
AQUA 4.1 02:20:16 10° NNE 02:25:00 68° ESE 02:29:42 10° S
Cosmos 1607 4.3 02:18:58 10° NW 02:25:02 45° WSW 02:30:57 10° S
ASTEX 1 3.3 02:22:12 10° S 02:27:03 78° W 02:31:57 10° N
FENGYUN 3A 3.7 02:22:47 10° NNE 02:28:13 86° ESE 02:33:37 10° SSW
ATLAS 5 CENTAUR R/B 2.7 02:27:20 10° S 02:29:58 23° ESE 02:32:48 10° ENE
Cosmos 1812 2.5 02:26:42 10° NNW 02:30:16 71° W 02:33:49 10° S
CENTAUR R/B 4.4 02:27:16 10° WNW 02:33:02 31° NNW 02:39:55 10° NE
Resurs 1-4 Rocket 2.5 02:34:00 10° N 02:39:08 52° WNW 02:44:15 10° SW
NPP 4.4 02:35:12 10° N 02:40:15 42° WNW 02:45:17 10° SW
Timation 2 Rocket 4.1 02:37:34 10° SSW 02:44:09 85° ESE 02:50:29 10° NNE
Cosmos 2058 2.9 02:40:40 10° S 02:44:44 87° W 02:48:51 10° N
BlueWalker 3 1.8 02:43:49 10° WNW 02:47:31 61° SSW 02:51:12 10° SE
Cosmos 1892 Rocket 3.9 02:43:44 10° SSW 02:48:04 54° WNW 02:52:27 10° N
SAR-Lupe-4 4.0 02:44:48 10° NNE 02:48:21 60° ESE 02:51:51 10° S
Meteor 2-19 Rocket 4.5 02:42:47 10° NNW 02:48:57 74° W 02:55:06 10° S
Cosmos 2058 Rocket 3.2 02:45:32 10° NNW 02:49:54 60° W 02:54:13 10° S
ATLAS CENTAUR R/B 4.2 02:50:54 10° NNW 02:54:01 23° NE 02:57:15 10° E
USA 238 DEB 4.1 02:47:57 10° WSW 02:54:08 54° NW 03:00:57 10° NE
USA 238 4.1 02:47:59 10° WSW 02:54:10 55° NW 03:01:00 10° NE
Envisat 3.7 02:53:55 10° NNE 02:58:54 55° E 03:03:52 10° S
NOSS 2-2 (C) 3.3 02:57:10 10° SSW 03:00:18 48° SE 03:03:21 10° NE
